Location: Poughquag
(41.6090°N, 73.6820°W)
Time: 02:47:58
(UTC-04:00)

Transit 4A - Pass Details

Date: 02 June 2020
Orbit: 866 x 978 km, 66.8° (Epoch: 06 July)

Event Time Altitude Azimuth Distance (km) Brightness Sun altitude
Rises 12:37:47 0° 311° (NW) 3,596 10.8 70.4°
Reaches altitude 10° 12:41:39 10° 287° (WNW) 2,670 10.4 70.6°
Maximum altitude 12:44:37 14° 258° (WSW) 2,409 10.3 70.6°
Drops below altitude 10° 12:47:37 10° 229° (SW) 2,693 10.6 70.7°
Sets 12:51:34 0° 205° (SSW) 3,649 11.2 70.7°
